Regional Weather Roundup
Issued by NWS

Home | Current Version | Previous Version | Text Only | Print | Product List | Glossary On
Versions: 1 2 3 4 5 6 7 8 9 10 11 12 13 14 15 16 17 18 19 20 21 22 23 24 25 26 27
000
ASUS45 KSLC 170210
RWRUT

UTAH REGIONAL WEATHER ROUNDUP
NATIONAL WEATHER SERVICE SALT LAKE CITY UT
700 PM MST SAT DEC 16 2017

UTZ001>011-023>025-170300-

NORTHERN UTAH

CITY           SKY/WX    TMP DP  RH WIND       PRES   REMARKS
BRIGHAM CITY   CLOUDY    31  27  86 CALM      30.00R
HILL AFB       FLURRIES  28  28 100 NW8       29.97R WCI  20
LOGAN          CLOUDY    30  25  81 N7        30.00R WCI  23
OGDEN          CLOUDY    30  27  88 NW9       29.97R WCI  22
SALT LAKE CITY LGT SNOW  32  30  92 NW9       29.99R FOG     WCI  24
TOOELE VALLEY  LGT SNOW  30  30 100 W5        30.02R WCI  25
WENDOVER       PTCLDY    30  17  58 E10       30.03R WCI  21
HEBER CITY     CLOUDY    32  23  69 SW10      29.89R WCI  24
WEST JORDAN    CLOUDY    29  29 100 NW10      30.00R WCI  20

$$

UTZ011>015-024>027-170300-

CENTRAL/NORTHEAST UTAH

CITY           SKY/WX    TMP DP  RH WIND       PRES   REMARKS
PROVO AIRPORT  CLOUDY    32  27  81 NW16      29.97R WCI  21
MOAB/CANYONLAN MOCLDY    26   6  42 CALM      29.81R
DELTA          CLOUDY    30  28  93 N8        29.98R WCI  23
PRICE          CLOUDY    36  23  59 N10       29.82R WCI  28
RICHFIELD        N/A     34  25  69 N5        29.93R WCI  30
ROOSEVELT      CLOUDY    32  14  47 CALM      29.84R
VERNAL         CLOUDY    27  13  55 W5        29.81R WCI  22

$$

UTZ013>016-019>022-027-170300-

SOUTHERN UTAH

CITY           SKY/WX    TMP DP  RH WIND       PRES   REMARKS
BRYCE CANYON   MOCLDY    26  13  57 W8        29.85R WCI  18
CEDAR CITY     CLOUDY    31  24  75 N10       29.89R WCI  22
MILFORD        CLOUDY    31  28  89 N13       29.95R WCI  21
ST GEORGE      CLOUDY    50  25  37 NE17      29.81R
HANKSVILLE     PTCLDY    28   9  43 CALM      29.86R
KANAB          CLEAR     43   1  17 N6        29.84R
BLANDING         N/A     30   8  38 NW6       29.88R WCI  24

$$

REGIONAL REPORTS     COLORADO/ARIZONA

CITY           SKY/WX    TMP DP  RH WIND       PRES   REMARKS
CRAIG, CO      CLOUDY    23  15  71 CALM      29.82R
GRAND JUNCTION CLOUDY    29   7  39 CALM      29.81R
RIFLE, CO      CLOUDY    30  10  43 CALM      29.81R
MONTROSE, CO   CLOUDY    31   8  38 SE10      29.83R WCI  22
CORTEZ, CO     CLOUDY    30  11  45 NE3       29.82R
COLORADO CITY  MOCLDY    37  10  32 N3        29.84R
PAGE, AZ       MOCLDY    38  11  32 SW6       29.81R WCI  33
GRAND CANYON   MOCLDY    25   3  38 CALM      29.84R
KINGMAN, AZ    CLOUDY    44   9  23 E8        29.79R
FLAGSTAFF, AZ  MOCLDY    35   9  33 W5        29.85R WCI  31

$$

REGIONAL REPORTS    NEVADA/IDAHO/WYOMING

CITY           SKY/WX    TMP DP  RH WIND       PRES   REMARKS
LAS VEGAS, NV  CLOUDY    59  23  25 N10       29.78R
ELY, NY        CLOUDY    27  22  81 N7        29.96R WCI  19
ELKO, NV       CLOUDY    30  18  60 NW6       30.07R WCI  24
POCATELLO, ID  CLOUDY    28  25  88 SW8       30.06R WCI  20
BURLEY, ID     CLOUDY    31  24  75 W9        30.07R WCI  23
FORT BRIDGER,  FLURRIES  27  26  96 W12       29.89R WCI  17
EVANSTON, WY   CLOUDY    24  23  96 N10       29.88R WCI  14
ROCK SPRINGS,  CLOUDY    29  25  85 E9        29.84R WCI  20

$$




USA.gov is the U.S. government's official web portal to all federal, state and local government web resources and services.